Location: Riverside Cemetery
(38.3047°N, 99.7773°W)
Time: 03:45:37
(UTC+00:00)

Cosmos 1844 Rocket - Pass Details

Date: 19 September 2020
Orbit: 823 x 846 km, 71.0° (Epoch: 22 October)

Event Time Altitude Azimuth Distance (km) Brightness Sun altitude
Rises 02:22:20 0° 196° (SSW) 3,341 5.8 -20.2°
Reaches altitude 10° 02:24:45 10° 195° (SSW) 2,413 5.0 -20.7°
Maximum altitude 02:30:15 77° 110° (ESE) 850 2.5 -21.7°
Drops below altitude 10° 02:35:50 10° 26° (NNE) 2,436 5.0 -22.7°
Sets 02:38:16 0° 25° (NNE) 3,376 5.8 -23.2°
